Location: Stull Observatory
(42.2506°N, 77.7903°W)
Time: 03:09:49
(UTC-05:00)

Daily predictions for brighter satellites

Satellite Brightness Start Highest point End
(mag) Time Altitude Azimuth Time Altitude Azimuth Time Altitude Azimuth
ATLAS 2AS CENTAUR R/B 4.3 03:08:30 32° N 03:08:30 32° N 03:12:50 10° NNE
CZ-3 R/B 4.2 03:22:47 46° SSW 03:24:11 46° S 03:34:08 10° ESE
CENTAUR R/B 3.6 03:37:04 47° N 03:38:57 56° NE 03:47:15 10° SE
Cosmos 2098 Rocket 4.3 04:10:29 53° NNE 04:10:29 53° NNE 04:15:30 10° N
BREEZE-M DEB (TANK) 4.4 04:14:26 46° SE 04:14:26 46° SE 04:21:53 10° SE
Lacrosse 5 rocket 3.6 04:23:35 19° NE 04:23:35 19° NE 04:26:01 10° ENE
Cosmos 2285 Rocket 4.3 04:21:32 10° NNW 04:27:58 69° ENE 04:34:22 10° SSE
ADEOS II 4.2 04:27:53 10° N 04:28:49 15° N 04:28:49 15° N
Cosmos 1697 Rocket 3.8 04:30:58 13° S 04:35:29 40° ESE 04:40:42 10° NE
Cosmos 2227 Rocket 2.1 04:35:29 81° NNW 04:35:47 89° ENE 04:41:26 10° SSE
IRS-1C Rocket 4.5 04:37:18 10° NNE 04:42:33 61° ESE 04:47:42 10° S
COSMO-SKYMED 1 4.4 04:40:20 10° SE 04:44:08 31° ENE 04:47:57 10° N
SJ 16-02 4.0 04:43:25 10° SE 04:46:36 20° E 04:49:48 10° NE
BREEZE-M DEB (TANK) 4.3 04:47:31 42° SSW 04:47:31 42° SSW 04:56:05 10° SE
Cosmos 2297 Rocket 2.0 04:48:19 43° NNW 04:50:14 81° WSW 04:55:53 10° SSE
Cosmos 1898 Rocket 3.5 04:52:25 63° WNW 04:52:25 63° WNW 04:57:34 10° NNE
CZ-2C R/B 4.5 04:50:50 10° NE 04:55:11 28° E 04:59:36 10° SSE
CZ-4B R/B 3.0 04:50:56 10° NNE 04:56:21 80° WNW 04:59:13 30° SSW
ATLAS 2AS CENTAUR R/B 4.5 04:55:56 19° NW 04:57:59 20° NNW 05:03:43 10° NNE
Cosmos 1934 Rocket 4.4 04:52:00 10° S 04:58:13 64° E 05:04:31 10° NNE
OAO 3 Rocket 4.1 04:59:00 35° S 04:59:20 36° S 05:03:51 10° ESE
Cosmos 1937 Rocket 3.3 04:58:59 54° SW 05:00:07 75° WNW 05:05:25 10° NNE
CZ-2C R/B 3.9 04:59:15 10° SSE 05:03:57 73° ENE 05:08:35 10° N
Cosmos 1869 Rocket 3.8 05:00:05 10° N 05:04:30 71° E 05:08:56 10° SSE
Okean O Rocket 2.5 05:00:38 10° N 05:03:28 34° NNW 05:03:28 34° NNW
CZ-4B DEB 4.2 05:00:10 10° N 05:05:33 58° WNW 05:07:14 41° SW
RESURS DK-1 4.4 05:07:48 16° NNW 05:07:48 16° NNW 05:09:03 10° N
CZ-4B R/B 4.0 05:01:13 10° N 05:05:40 65° WNW 05:05:43 65° W
Cosmos 1707 Rocket 4.0 05:07:03 10° S 05:11:26 62° E 05:15:51 10° NNE
Cosmos 1862 3.6 05:08:35 10° N 05:12:33 66° E 05:16:31 10° SSE
Cosmos 1821 Rocket 3.8 05:07:26 10° SSW 05:13:32 74° W 05:19:46 10° N
PAYLOAD B 4.4 05:10:16 10° N 05:15:31 47° WNW 05:17:14 35° WSW
Cosmos 2082 3.7 05:12:39 22° NW 05:16:11 56° WSW 05:21:44 10° S
Cosmos 990 Rocket 4.1 05:16:53 37° WSW 05:18:39 53° WNW 05:23:49 10° N
Cosmos 2278 3.7 05:16:08 31° SW 05:18:51 60° WNW 05:24:30 10° NNE
Cosmos 1535 Rocket 4.3 05:18:16 10° SSW 05:24:24 72° W 05:30:32 10° N
Aureole 1 Rocket 4.1 05:17:06 10° NNW 05:24:57 78° WSW 05:31:04 10° SSE
Centaur D-1A AC-31 3.6 05:25:12 15° SW 05:29:10 28° SSE 05:45:12 10° ESE
CENTAUR R/B 3.5 05:24:19 19° NW 05:29:40 42° WSW 05:37:27 10° S
SKYMED 2 3.4 05:27:39 10° S 05:32:00 81° WSW 05:36:22 10° NNW
Cosmos 2298 Rocket 4.3 05:30:28 25° WSW 05:33:08 45° WNW 05:38:14 10° N
Genesis I 3.5 05:34:16 37° W 05:35:14 46° NW 05:39:05 10° NNE
EO 1 Del DPAF 3.9 05:32:55 10° SSE 05:36:39 56° ENE 05:40:26 10° N
Tiangong 1 2.6 05:38:04 16° S 05:38:04 16° S 05:39:02 10° SSE
Feng Yun 1-1 Rocket 4.2 05:31:55 10° NNE 05:37:28 89° W 05:43:07 10° SSW
NOSS 8 (H) 4.3 05:37:49 31° SW 05:39:16 67° NW 05:42:46 10° NNE
Geosat 4.0 05:35:35 10° SSE 05:40:37 89° WSW 05:45:41 10° NNW
Meteor 1-31 Rocket 4.4 05:41:27 10° NNW 05:43:05 18° NW 05:43:05 18° NW
Cosmos 2369 4.3 05:42:15 21° WSW 05:45:18 35° WNW 05:50:34 10° N
Cosmos 1980 Rocket 2.2 05:41:32 10° SSW 05:47:13 90° WNW 05:52:56 10° NNE
IDEFIX/ARIANE 42P 2.5 05:42:31 10° N 05:47:43 67° WNW 05:52:52 10° SSW
NOAA 6 4.0 05:43:03 10° N 05:48:11 64° WNW 05:53:15 10° SSW
Cosmos 405 3.5 05:45:34 10° N 05:49:05 61° ENE 05:52:37 10° SSE
Okean-O 2.6 05:49:41 10° N 05:54:06 64° WNW 05:58:28 10° SSW
Landsat 4 3.6 05:50:58 10° S 05:54:40 64° WSW 05:58:22 10° NNW
Cosmos 1605 Rocket 3.9 05:52:35 10° SSW 05:58:42 66° W 06:04:46 10° N
Lacrosse 5 rocket 1.2 05:59:17 13° NW 06:02:39 78° SW 06:06:44 10° SE
DMSP B5D1-3 4.5 05:57:57 10° S 06:03:00 68° WSW 06:08:05 10° NNW
Cosmos 1441 Rocket 3.5 05:59:47 10° S 06:03:45 76° E 06:07:45 10° NNE
Thor Agena Rocket 4.3 06:07:43 10° SSE 06:12:53 58° ENE 06:18:02 10° N
ATLAS 5 CENTAUR R/B 3.1 06:08:50 10° S 06:13:02 42° ESE 06:17:36 10° NE
Meteor 2-10 Rocket 4.3 06:09:50 10° SW 06:14:05 26° WNW 06:18:18 10° NNW
SL-16 R/B 3.2 06:10:50 10° S 06:16:18 53° ESE 06:21:49 10° NNE
Cosmos 1862 Rocket 3.5 06:12:31 10° SSW 06:16:51 77° W 06:21:14 10° N
PAYLOAD A 4.5 06:12:52 10° N 06:17:08 34° WNW 06:21:29 10° SW
Cosmos 1733 Rocket 3.0 06:14:23 10° NNW 06:18:42 62° W 06:23:01 10° S
Cosmos 2227 Rocket 3.9 06:17:25 11° W 06:18:57 12° W 06:21:01 10° WSW
Cosmos 1697 Rocket 3.5 06:14:37 10° WSW 06:19:32 31° NW 06:24:30 10° N
COSMO-SKYMED 1 3.6 06:16:46 10° SSW 06:20:18 24° W 06:23:51 10° NW
BREEZE-M DEB (TANK) 4.5 05:58:49 10° WSW 06:20:59 61° NNW 06:25:48 10° ENE
MSX 3.9 06:17:25 10° N 06:23:02 55° WNW 06:28:39 10° SSW
SJ 16-02 1.9 06:20:47 10° SW 06:24:55 38° WNW 06:29:03 10° N
SJ-12 4.2 06:24:38 10° N 06:28:40 49° WNW 06:32:38 10° SSW
Cosmos 1633 2.6 06:25:56 10° N 06:29:34 84° E 06:33:13 10° S
Meteor 1-20 Rocket 4.4 06:24:14 10° N 06:30:07 88° E 06:35:55 10° S
Cosmos 1048 Rocket 4.3 06:25:53 10° NNW 06:30:49 46° WSW 06:35:40 10° S
Cosmos 2297 Rocket 4.0 06:32:33 10° W 06:33:17 10° W 06:34:00 10° WSW
CZ-2C R/B 3.1 06:28:53 10° N 06:33:25 35° WNW 06:38:03 10° SW
COSMOS 2455 2.9 06:29:20 10° NW 06:35:19 66° WSW 06:41:16 10° SSE
Cosmos 2173 Rocket 4.0 06:29:16 10° S 06:35:30 87° W 06:41:42 10° N
